Regional Weather Roundup
Issued by NWS

Home | Current Version | Previous Version | Text Only | Print | Product List | Glossary Off
Versions: 1 2 3 4 5 6 7 8 9 10 11 12 13 14 15 16 17 18 19 20 21 22 23 24 25 26 27 28 29 30 31 32 33 34 35 36 37 38 39 40 41 42 43 44 45 46 47 48 49 50

000
ASUS43 KDTX 230710
RWRMI
MICHIGAN HOURLY REGIONAL WEATHER ROUNDUP
NATIONAL WEATHER SERVICE DETROIT/PONTIAC MI
ISSUED BY NATIONAL WEATHER SERVICE GRAND RAPIDS MI
300 AM EDT TUE MAY 23 2017

NOTE: "FAIR" INDICATES FEW OR NO CLOUDS BELOW 12,000 FEET WITH NO
SIGNIFICANT WEATHER AND/OR OBSTRUCTION TO VISIBILITY.

MIZ047>049-052>055-059>063-066>070-074>076-081>083-230800-
SOUTHEAST LOWER MICHIGAN

CITY           SKY/WX    TMP DP  RH WIND       PRES   REMARKS
ADRIAN         CLOUDY    55  47  74 CALM      29.93F
ALMA           CLOUDY    57  50  78 S8G17     29.88S
ANN ARBOR      CLOUDY    56  50  80 S5        29.92F
BAD AXE        CLEAR     55  47  75 SW5       29.88S
DETROIT CITY   CLOUDY    62  48  60 S8        29.92F
DETROIT        CLOUDY    59  48  67 S7        29.93F
FLINT          CLOUDY    60  48  64 SW7       29.89F
GROSSE ILE     PTCLDY    59  54  83 S7        29.92F
HILLSDALE      CLOUDY    55  46  71 CALM      29.92F
HOWELL         CLOUDY    59  46  63 SW5       29.90F

CITY           SKY/WX    TMP DP  RH WIND       PRES   REMARKS
JACKSON        CLOUDY    60  48  64 SW7       29.91F
LANSING        CLOUDY    61  48  62 SW9       29.90F
MASON          CLOUDY    60  49  68 CALM      29.90F
MONROE         CLOUDY    56  48  73 S3        29.92F
MT. CLEMENS    CLOUDY    56  52  84 S5        29.90F
PONTIAC        CLOUDY    61  47  59 S8        29.90F
PORT HOPE        N/A     54  51  90 CALM      29.86F
PORT HURON     CLOUDY    55  48  76 S3        29.91F
TRI CITIES     CLOUDY    58  51  78 SW7       29.88S
YPSILANTI      PTCLDY    57  51  80 S6        29.93F
$$
MIZ043>046-050>051-056>058-064>065-071>073-077>080-230800-
SOUTHWEST LOWER MICHIGAN

CITY           SKY/WX    TMP DP  RH WIND       PRES   REMARKS
BATTLE CREEK   CLOUDY    59  51  75 SW7       29.90F
BENTON HARBOR  CLOUDY    60  50  69 S5        29.87F
BIG RAPIDS     MOCLDY    51  50  93 CALM      29.84F
COLDWATER      CLOUDY    59  49  69 S3        29.91F
HOLLAND        CLOUDY    60  51  72 SW9       29.88F
GRAND RAPIDS   CLOUDY    61  52  72 SW9       29.87F
KALAMAZOO      CLOUDY    60  50  69 S8        29.89F
MARSHALL       CLOUDY    60  50  69 S5        29.90F
MOUNT PLEASANT PTCLDY    55  52  92 CALM      29.86S
MUSKEGON       CLOUDY    56  50  80 S9        29.86S
STURGIS        CLOUDY    59  51  75 S6        29.89F
$$
MIZ016>042-230800-
NORTHERN LOWER MICHIGAN

CITY           SKY/WX    TMP DP  RH WIND       PRES   REMARKS
ALPENA         CLOUDY    45  43  93 CALM      29.85F
BEAVER ISLAND  FOG       38  38  99 CALM      29.85F VSB 1/4
BELLAIRE       FOG       44  42  95 CALM      29.85F VSB 1/4
CADILLAC       CLEAR     45  43  93 CALM      29.84F
CHARLEVOIX     MOCLDY    48  47  94 CALM      29.87F
GAYLORD        CLEAR     48  43  82 CALM      29.85F
HOUGHTON LAKE  PTCLDY    48  46  93 NW3       29.86S
MANISTEE       PTCLDY    45  44  97 SE3       29.85S
OSCODA         CLOUDY    55  49  80 CALM      29.86S
PELLSTON       FOG       41  40  96 CALM      29.85F VSB 3/4
TRAVERSE CITY  CLEAR     49  45  86 CALM      29.83F
LUDINGTON      MOCLDY    50  47  92 CALM      29.83F
$$
MIZ007>008-015-230800-
EASTERN UPPER MICHIGAN

CITY           SKY/WX    TMP DP  RH WIND       PRES   REMARKS
KINROSS        CLOUDY    46  46 100 SW3       29.84F
MACKINAC ISLAN CLOUDY    47  47 100 CALM      29.84S FOG
NEWBERRY       FOG       39  38  97 CALM      29.84S VSB 1/2
S. S. MARIE    CLOUDY    48  46  93 CALM      29.83F FOG
$$
MIZ004>006-011>014-085-230800-
CENTRAL UPPER MICHIGAN

CITY           SKY/WX    TMP DP  RH WIND       PRES   REMARKS
MANISTIQUE     FOG       36  33  90 CALM      29.84S VSB 1/2
ESCANABA       CLEAR     38  38 100 CALM      29.84F FOG
MENOMINEE      CLEAR     43  42  97 CALM      29.85R
SAWYER-GWINN   CLEAR     35  34  97 CALM      29.83S FOG
$$
MIZ001>003-009>011-084-230800-
WESTERN UPPER MICHIGAN

CITY           SKY/WX    TMP DP  RH WIND       PRES   REMARKS
IRON MOUNTAIN  FOG       35  34  96 CALM      29.82S VSB 1
HOUGHTON       PTCLDY    46  40  79 NW7       29.80F
COPPER HARBOR    N/A     48  43  82 CALM      29.81S
IRONWOOD       CLOUDY    44  43  96 CALM      29.83S
$$

ABBREVIATIONS USED IN REMARKS
   TC - TEMPERATURE IN CELSIUS
  WCI - WIND CHILL INDEX
   HX - HEAT INDEX
  VSB - VISIBILITY





USA.gov is the U.S. government's official web portal to all federal, state and local government web resources and services.